Regional Weather Roundup
Issued by NWS

Home | Current Version | Previous Version | Graphics & Text | Print | Product List | Glossary On
Versions: 1 2 3 4 5 6 7 8 9 10 11 12 13 14 15 16 17 18 19 20 21 22 23 24 25 26 27 28 29 30 31 32 33 34 35 36 37 38 39 40 41 42 43 44 45 46 47 48 49 50
000
ASUS43 KBIS 151920
RWRND

NORTH DAKOTA REGIONAL WEATHER ROUNDUP
NATIONAL WEATHER SERVICE BISMARCK ND
200 PM CDT MON SEP 15 2014

NOTE: "FAIR" INDICATES FEW OR NO CLOUDS BELOW 12,000 FEET WITH NO
SIGNIFICANT WEATHER AND/OR OBSTRUCTIONS TO VISIBILITY.


NDZ001>003-009>011-017-152000-
NORTHWEST NORTH DAKOTA

CITY           SKY/WX    TMP DP  RH WIND       PRES   REMARKS
WILLISTON      SUNNY     65  32  29 S12       30.17F
MINOT          SUNNY     65  34  31 SW10      30.16F
MINOT AFB      SUNNY     65  36  33 NW8       30.15F
$$

NDZ018>021-031>035-040>046-152000-
SOUTHWEST NORTH DAKOTA

CITY           SKY/WX    TMP DP  RH WIND       PRES   REMARKS
BISMARCK       SUNNY     67  35  30 W14G20    30.23F
DICKINSON      SUNNY     63  37  38 S8        30.19F
GARRISON         N/A     64  37  36 SW13      30.19F
HETTINGER ARPT SUNNY     61  36  39 VRB5      30.23F
$$

NDZ004>008-012>016-024-026-027-054-152000-
NORTHEAST NORTH DAKOTA

CITY           SKY/WX    TMP DP  RH WIND       PRES   REMARKS
GRAND FORKS    MOSUNNY   64  38  38 VRB7      30.18F
GRND FRKS AFB  MOSUNNY   65  38  37 W12       30.18F
DEVILS LAKE    SUNNY     63  37  39 W12G17    30.15F
$$

NDZ022-023-025-028>030-036>039-047>053-152000-
SOUTHEAST NORTH DAKOTA

CITY           SKY/WX    TMP DP  RH WIND       PRES   REMARKS
FARGO          MOSUNNY   64  35  34 W7        30.22F
JAMESTOWN      SUNNY     62  38  40 W13       30.22F
$$




USA.gov is the U.S. government's official web portal to all federal, state and local government web resources and services.